Location: Amsterdam
(30.7274°N, 84.4357°W)
Time: 07:22:47
(UTC+00:00)

Tiros 1 - Pass Details

Date: 18 February 2026
Orbit: 618 x 649 km, 48.4° (Epoch: 9 March)

Event Time Altitude Azimuth Distance (km) Brightness Sun altitude
Rises 19:59:54 0° 316° (NW) 2,886 10.5 37.8°
Reaches altitude 10° 20:02:18 10° 323° (NW) 1,977 9.7 37.5°
Maximum altitude 20:06:40 45° 36° (NE) 838 7.7 36.8°
Drops below altitude 10° 20:11:01 10° 110° (ESE) 1,974 9.5 36.2°
Sets 20:13:24 0° 116° (ESE) 2,880 10.3 35.8°
